EUTELSAT 16A

Last updated on Thu Jul 03 2025 00:02:45 GMT+0000 (Coordinated Universal Time)

1 37836U 11057A 25183.56979287 .00000111 00000+0 00000+0 0 9994 2 37836 0.0632 6.6269 0005740 95.4763 39.8520 1.00271136 3820
UTC large
Height (km)
Speed (km/s)
/
Latitude / Longitude
Inclination (degrees)
Orbital Period (minutes)
Azimuth
Elevation
Range (km)
Doppler Factor

Next 0 passes for location: London (51.5072 / 0.1276)

Sorry there are no passes over London.